Year,Month,Day,Hour,Minute,Value (Times are PST for temperature in C)
2019,06,02,00,00,14.00
2019,06,02,00,01,14.00
2019,06,02,00,02,13.90
2019,06,02,00,03,13.90
2019,06,02,00,04,13.90
2019,06,02,00,05,13.90
2019,06,02,00,06,13.80
2019,06,02,00,07,13.80
2019,06,02,00,08,13.80
2019,06,02,00,09,13.80
2019,06,02,00,10,13.80
2019,06,02,00,11,13.70
2019,06,02,00,12,13.70
2019,06,02,00,13,13.70
2019,06,02,00,14,13.70
2019,06,02,00,15,13.70
2019,06,02,00,16,13.70
2019,06,02,00,17,13.70
2019,06,02,00,18,13.70
2019,06,02,00,19,13.70
2019,06,02,00,20,13.60
2019,06,02,00,21,13.60
2019,06,02,00,22,13.60
2019,06,02,00,23,13.60
2019,06,02,00,24,13.60
2019,06,02,00,25,13.60
2019,06,02,00,26,13.60
2019,06,02,00,27,13.60
2019,06,02,00,28,13.60
2019,06,02,00,29,13.50
2019,06,02,00,30,13.50
2019,06,02,00,31,13.50
2019,06,02,00,32,13.50
2019,06,02,00,33,13.50
2019,06,02,00,34,13.50
2019,06,02,00,35,13.40
2019,06,02,00,36,13.40
2019,06,02,00,37,13.40
2019,06,02,00,38,13.40
2019,06,02,00,39,13.50
2019,06,02,00,40,13.50
2019,06,02,00,41,13.40
2019,06,02,00,42,13.40
2019,06,02,00,43,13.40
2019,06,02,00,44,13.40
2019,06,02,00,45,13.40
2019,06,02,00,46,13.40
2019,06,02,00,47,13.40
2019,06,02,00,48,13.40
2019,06,02,00,49,13.40
2019,06,02,00,50,13.40
2019,06,02,00,51,13.40
2019,06,02,00,52,13.40
2019,06,02,00,53,13.40
2019,06,02,00,54,13.30
2019,06,02,00,55,13.30
2019,06,02,00,56,13.30
2019,06,02,00,57,13.30
2019,06,02,00,58,13.30
2019,06,02,00,59,13.30
2019,06,02,01,00,13.30
2019,06,02,01,01,13.30
2019,06,02,01,02,13.30
2019,06,02,01,03,13.30
2019,06,02,01,04,13.30
2019,06,02,01,05,13.30
2019,06,02,01,06,13.30
2019,06,02,01,07,13.30
2019,06,02,01,08,13.30
2019,06,02,01,09,13.30
2019,06,02,01,10,13.30
2019,06,02,01,11,13.30
2019,06,02,01,12,13.20
2019,06,02,01,13,13.20
2019,06,02,01,14,13.20
2019,06,02,01,15,13.20
2019,06,02,01,16,13.20
2019,06,02,01,17,13.20
2019,06,02,01,18,13.10
2019,06,02,01,19,13.10
2019,06,02,01,20,13.10
2019,06,02,01,21,13.10
2019,06,02,01,22,13.10
2019,06,02,01,23,13.10
2019,06,02,01,24,13.00
2019,06,02,01,25,13.00
2019,06,02,01,26,13.00
2019,06,02,01,27,12.90
2019,06,02,01,28,12.90
2019,06,02,01,29,12.90
2019,06,02,01,30,12.80
2019,06,02,01,31,12.80
2019,06,02,01,32,12.80
2019,06,02,01,33,12.80
2019,06,02,01,34,12.80
2019,06,02,01,35,12.80
2019,06,02,01,36,12.70
2019,06,02,01,37,12.70
2019,06,02,01,38,12.70
2019,06,02,01,39,12.70
2019,06,02,01,40,12.70
2019,06,02,01,41,12.70
2019,06,02,01,42,12.60
2019,06,02,01,43,12.60
2019,06,02,01,44,12.60
2019,06,02,01,45,12.60
2019,06,02,01,46,12.60
2019,06,02,01,47,12.50
2019,06,02,01,48,12.50
2019,06,02,01,49,12.50
2019,06,02,01,50,12.50
2019,06,02,01,51,12.50
2019,06,02,01,52,12.50
2019,06,02,01,53,12.50
2019,06,02,01,54,12.50
2019,06,02,01,55,12.50
2019,06,02,01,56,12.50
2019,06,02,01,57,12.50
2019,06,02,01,58,12.50
2019,06,02,01,59,12.50
2019,06,02,02,00,12.50
2019,06,02,02,01,12.50
2019,06,02,02,02,12.50
2019,06,02,02,03,12.50
2019,06,02,02,04,12.50
2019,06,02,02,05,12.50
2019,06,02,02,06,12.50
2019,06,02,02,07,12.60
2019,06,02,02,08,12.60
2019,06,02,02,09,12.60
2019,06,02,02,10,12.60
2019,06,02,02,11,12.60
2019,06,02,02,12,12.60
2019,06,02,02,13,12.60
2019,06,02,02,14,12.60
2019,06,02,02,15,12.60
2019,06,02,02,16,12.60
2019,06,02,02,17,12.60
2019,06,02,02,18,12.60
2019,06,02,02,19,12.60
2019,06,02,02,20,12.60
2019,06,02,02,21,12.60
2019,06,02,02,22,12.60
2019,06,02,02,23,12.60
2019,06,02,02,24,12.60
2019,06,02,02,25,12.60
2019,06,02,02,26,12.60
2019,06,02,02,27,12.60
2019,06,02,02,28,12.60
2019,06,02,02,29,12.50
2019,06,02,02,30,12.50
2019,06,02,02,31,12.50
2019,06,02,02,32,12.50
2019,06,02,02,33,12.50
2019,06,02,02,34,12.50
2019,06,02,02,35,12.50
2019,06,02,02,36,12.50
2019,06,02,02,37,12.40
2019,06,02,02,38,12.40
2019,06,02,02,39,12.40
2019,06,02,02,40,12.40
2019,06,02,02,41,12.40
2019,06,02,02,42,12.40
2019,06,02,02,43,12.40
2019,06,02,02,44,12.30
2019,06,02,02,45,12.30
2019,06,02,02,46,12.30
2019,06,02,02,47,12.30
2019,06,02,02,48,12.30
2019,06,02,02,49,12.30
2019,06,02,02,50,12.30
2019,06,02,02,51,12.30
2019,06,02,02,52,12.30
2019,06,02,02,53,12.20
2019,06,02,02,54,12.20
2019,06,02,02,55,12.20
2019,06,02,02,56,12.20
2019,06,02,02,57,12.20
2019,06,02,02,58,12.20
2019,06,02,02,59,12.20
2019,06,02,03,00,12.20
2019,06,02,03,01,12.20
2019,06,02,03,02,12.20
2019,06,02,03,03,12.20
2019,06,02,03,04,12.20
2019,06,02,03,05,12.20
2019,06,02,03,06,12.20
2019,06,02,03,07,12.20
2019,06,02,03,08,12.10
2019,06,02,03,09,12.10
2019,06,02,03,10,12.10
2019,06,02,03,11,12.10
2019,06,02,03,12,12.10
2019,06,02,03,13,12.10
2019,06,02,03,14,12.10
2019,06,02,03,15,12.10
2019,06,02,03,16,12.10
2019,06,02,03,17,12.10
2019,06,02,03,18,12.10
2019,06,02,03,19,12.00
2019,06,02,03,20,12.00
2019,06,02,03,21,11.90
2019,06,02,03,22,11.90
2019,06,02,03,23,11.90
2019,06,02,03,24,11.90
2019,06,02,03,25,11.80
2019,06,02,03,26,11.80
2019,06,02,03,27,11.80
2019,06,02,03,28,11.80
2019,06,02,03,29,11.70
2019,06,02,03,30,11.70
2019,06,02,03,31,11.70
2019,06,02,03,32,11.70
2019,06,02,03,33,11.70
2019,06,02,03,34,11.70
2019,06,02,03,35,11.70
2019,06,02,03,36,11.70
2019,06,02,03,37,11.60
2019,06,02,03,38,11.60
2019,06,02,03,39,11.60
2019,06,02,03,40,11.60
2019,06,02,03,41,11.60
2019,06,02,03,42,11.60
2019,06,02,03,43,11.60
2019,06,02,03,44,11.60
2019,06,02,03,45,11.60
2019,06,02,03,46,11.60
2019,06,02,03,47,11.60
2019,06,02,03,48,11.60
2019,06,02,03,49,11.50
2019,06,02,03,50,11.50
2019,06,02,03,51,11.50
2019,06,02,03,52,11.50
2019,06,02,03,53,11.50
2019,06,02,03,54,11.50
2019,06,02,03,55,11.50
2019,06,02,03,56,11.50
2019,06,02,03,57,11.50
2019,06,02,03,58,11.50
2019,06,02,03,59,11.50
2019,06,02,04,00,11.40
2019,06,02,04,01,11.40
2019,06,02,04,02,11.40
2019,06,02,05,04,11.00
2019,06,02,05,05,11.10
2019,06,02,05,06,11.10
2019,06,02,05,07,11.10
2019,06,02,05,08,11.20
2019,06,02,05,09,11.20
2019,06,02,05,10,11.20
2019,06,02,05,11,11.30
2019,06,02,05,12,11.30
2019,06,02,05,13,11.30
2019,06,02,05,14,11.40
2019,06,02,05,15,11.40
2019,06,02,05,16,11.40
2019,06,02,05,17,11.50
2019,06,02,05,18,11.50
2019,06,02,05,19,11.60
2019,06,02,05,20,11.60
2019,06,02,05,21,11.70
2019,06,02,05,22,11.70
2019,06,02,05,23,11.70
2019,06,02,05,24,11.80
2019,06,02,05,25,11.80
2019,06,02,05,26,11.80
2019,06,02,05,27,11.80
2019,06,02,05,28,11.80
2019,06,02,05,29,11.80
2019,06,02,05,30,11.80
2019,06,02,05,31,11.80
2019,06,02,05,32,11.80
2019,06,02,05,33,11.70
2019,06,02,05,34,11.70
2019,06,02,05,35,11.70
2019,06,02,05,36,11.60
2019,06,02,05,37,11.60
2019,06,02,05,38,11.60
2019,06,02,05,39,11.60
2019,06,02,05,40,11.50
2019,06,02,05,41,11.50
2019,06,02,05,42,11.50
2019,06,02,05,43,11.50
2019,06,02,05,44,11.50
2019,06,02,05,45,11.50
2019,06,02,05,46,11.50
2019,06,02,05,47,11.50
2019,06,02,05,48,11.60
2019,06,02,05,49,11.60
2019,06,02,05,50,11.60
2019,06,02,05,51,11.60
2019,06,02,05,52,11.70
2019,06,02,05,53,11.70
2019,06,02,05,54,11.60
2019,06,02,05,55,11.60
2019,06,02,05,56,11.50
2019,06,02,05,57,11.50
2019,06,02,05,58,11.40
2019,06,02,05,59,11.40
2019,06,02,06,00,11.30
2019,06,02,06,01,11.20
2019,06,02,06,02,11.20
2019,06,02,06,03,11.20
2019,06,02,06,04,11.10
2019,06,02,06,05,11.10
2019,06,02,06,06,11.10
2019,06,02,06,07,11.10
2019,06,02,06,08,11.10
2019,06,02,06,09,11.00
2019,06,02,06,10,11.00
2019,06,02,06,11,10.90
2019,06,02,06,12,10.90
2019,06,02,06,13,10.90
2019,06,02,06,14,10.90
2019,06,02,06,15,10.90
2019,06,02,06,16,10.90
2019,06,02,06,17,10.90
2019,06,02,06,18,10.90
2019,06,02,06,19,10.80
2019,06,02,06,20,10.80
2019,06,02,06,21,10.80
2019,06,02,06,22,10.80
2019,06,02,06,23,10.80
2019,06,02,06,24,10.80
2019,06,02,06,25,10.80
2019,06,02,06,26,10.80
2019,06,02,06,27,10.80
2019,06,02,06,28,10.80
2019,06,02,06,29,10.80
2019,06,02,06,30,10.80
2019,06,02,06,31,10.80
2019,06,02,06,32,10.90
2019,06,02,06,33,10.90
2019,06,02,06,34,10.90
2019,06,02,06,35,11.00
2019,06,02,06,36,11.00
2019,06,02,06,37,11.10
2019,06,02,06,38,11.10
2019,06,02,06,39,11.20
2019,06,02,06,40,11.30
2019,06,02,06,41,11.30
2019,06,02,06,42,11.40
2019,06,02,06,43,11.50
2019,06,02,06,44,11.50
2019,06,02,06,45,11.60
2019,06,02,06,46,11.70
2019,06,02,06,47,11.70
2019,06,02,06,48,11.80
2019,06,02,06,49,11.80
2019,06,02,06,50,11.90
2019,06,02,06,51,11.90
2019,06,02,06,52,12.00
2019,06,02,06,53,12.00
2019,06,02,06,54,12.10
2019,06,02,06,55,12.10
2019,06,02,06,56,12.10
2019,06,02,06,57,12.20
2019,06,02,06,58,12.20
2019,06,02,06,59,12.30
2019,06,02,07,00,12.30
2019,06,02,07,01,12.40
2019,06,02,07,02,12.40
2019,06,02,07,03,12.50
2019,06,02,07,04,12.50
2019,06,02,07,05,12.60
2019,06,02,07,06,12.70
2019,06,02,07,07,12.80
2019,06,02,07,08,12.80
2019,06,02,07,09,12.90
2019,06,02,07,10,13.00
2019,06,02,07,11,13.00
2019,06,02,07,12,13.10
2019,06,02,07,13,13.20
2019,06,02,07,14,13.20
2019,06,02,07,15,13.30
2019,06,02,07,16,13.40
2019,06,02,07,17,13.40
2019,06,02,07,18,13.50
2019,06,02,07,19,13.60
2019,06,02,07,20,13.70
2019,06,02,07,21,13.70
2019,06,02,07,22,13.80
2019,06,02,07,23,13.90
2019,06,02,07,24,14.00
2019,06,02,07,25,14.10
2019,06,02,07,26,14.20
2019,06,02,07,27,14.20
2019,06,02,07,28,14.30
2019,06,02,07,29,14.40
2019,06,02,07,30,14.40
2019,06,02,07,31,14.50
2019,06,02,07,32,14.60
2019,06,02,07,33,14.60
2019,06,02,07,34,14.70
2019,06,02,07,35,14.80
2019,06,02,07,36,14.80
2019,06,02,07,37,14.90
2019,06,02,07,38,14.90
2019,06,02,07,39,15.00
2019,06,02,07,40,15.10
2019,06,02,07,41,15.10
2019,06,02,07,42,15.20
2019,06,02,07,43,15.20
2019,06,02,07,44,15.30
2019,06,02,07,45,15.30
2019,06,02,07,46,15.30
2019,06,02,07,47,15.30
2019,06,02,07,48,15.40
2019,06,02,07,49,15.50
2019,06,02,07,50,15.60
2019,06,02,07,51,15.60
2019,06,02,07,52,15.70
2019,06,02,07,53,15.80
2019,06,02,07,54,15.80
2019,06,02,07,55,15.90
2019,06,02,07,56,15.90
2019,06,02,07,57,16.00
2019,06,02,07,58,16.00
2019,06,02,07,59,16.00
2019,06,02,08,00,16.00
2019,06,02,08,01,16.00
2019,06,02,08,02,16.00
2019,06,02,08,03,16.00
2019,06,02,08,04,16.00
2019,06,02,08,05,16.10
2019,06,02,08,06,16.10
2019,06,02,08,07,16.20
2019,06,02,08,08,16.20
2019,06,02,08,09,16.30
2019,06,02,08,10,16.30
2019,06,02,08,11,16.30
2019,06,02,08,12,16.40
2019,06,02,08,13,16.40
2019,06,02,08,14,16.40
2019,06,02,08,15,16.50
2019,06,02,08,16,16.50
2019,06,02,08,17,16.60
2019,06,02,08,18,16.60
2019,06,02,08,19,16.70
2019,06,02,08,20,16.70
2019,06,02,08,21,16.70
2019,06,02,08,22,16.80
2019,06,02,08,23,16.80
2019,06,02,08,24,16.90
2019,06,02,08,25,17.20
2019,06,02,08,26,17.20
2019,06,02,08,27,17.30
2019,06,02,08,28,17.40
2019,06,02,08,29,17.40
2019,06,02,08,30,17.50
2019,06,02,08,31,17.50
2019,06,02,08,32,17.50
2019,06,02,08,33,17.40
2019,06,02,08,34,17.40
2019,06,02,08,35,17.30
2019,06,02,08,36,17.30
2019,06,02,08,37,17.20
2019,06,02,08,38,17.20
2019,06,02,08,39,17.20
2019,06,02,08,40,17.10
2019,06,02,08,41,17.10
2019,06,02,08,42,17.10
2019,06,02,08,43,17.10
2019,06,02,08,44,17.10
2019,06,02,08,45,17.10
2019,06,02,08,46,17.20
2019,06,02,08,47,17.30
2019,06,02,08,48,17.40
2019,06,02,08,49,17.40
2019,06,02,08,50,17.40
2019,06,02,08,51,17.50
2019,06,02,08,52,17.50
2019,06,02,08,53,17.60
2019,06,02,08,54,17.60
2019,06,02,08,55,17.60
2019,06,02,08,56,17.70
2019,06,02,08,57,17.70
2019,06,02,08,58,17.70
2019,06,02,08,59,17.70
2019,06,02,09,00,17.80
2019,06,02,09,01,17.80
2019,06,02,09,02,17.90
2019,06,02,09,03,17.90
2019,06,02,09,04,18.00
2019,06,02,09,05,18.00
2019,06,02,09,06,18.10
2019,06,02,09,07,18.10
2019,06,02,09,08,18.10
2019,06,02,09,09,18.10
2019,06,02,09,10,18.20
2019,06,02,09,11,18.20
2019,06,02,09,12,18.20
2019,06,02,09,13,18.30
2019,06,02,09,14,18.30
2019,06,02,09,15,18.30
2019,06,02,09,16,18.30
2019,06,02,09,17,18.30
2019,06,02,09,18,18.30
2019,06,02,09,19,18.30
2019,06,02,09,20,18.30
2019,06,02,09,21,18.30
2019,06,02,09,22,18.30
2019,06,02,09,23,18.20
2019,06,02,09,24,18.30
2019,06,02,09,25,18.30
2019,06,02,09,26,18.30
2019,06,02,09,27,18.40
2019,06,02,09,28,18.50
2019,06,02,09,29,18.60
2019,06,02,09,30,18.70
2019,06,02,09,31,18.80
2019,06,02,09,32,18.80
2019,06,02,09,33,18.90
2019,06,02,09,34,18.90
2019,06,02,09,35,18.90
2019,06,02,09,36,18.90
2019,06,02,09,37,18.90
2019,06,02,09,38,18.80
2019,06,02,09,39,18.70
2019,06,02,09,40,18.70
2019,06,02,09,41,18.70
2019,06,02,09,42,18.80
2019,06,02,09,43,18.80
2019,06,02,09,44,18.80
2019,06,02,09,45,18.90
2019,06,02,09,46,18.90
2019,06,02,09,47,19.00
2019,06,02,09,48,19.10
2019,06,02,09,49,19.20
2019,06,02,09,50,19.30
2019,06,02,09,51,19.30
2019,06,02,09,52,19.40
2019,06,02,09,53,19.50
2019,06,02,09,54,19.50
2019,06,02,09,55,19.50
2019,06,02,09,56,19.50
2019,06,02,09,57,19.50
2019,06,02,09,58,19.40
2019,06,02,09,59,19.40
2019,06,02,10,00,19.40
2019,06,02,10,01,19.40
2019,06,02,10,02,19.40
2019,06,02,10,03,19.30
2019,06,02,10,04,19.40
2019,06,02,10,05,19.40
2019,06,02,10,06,19.40
2019,06,02,10,07,19.30
2019,06,02,10,08,19.30
2019,06,02,10,09,19.30
2019,06,02,10,10,19.30
2019,06,02,10,11,19.20
2019,06,02,10,12,19.20
2019,06,02,10,13,19.20
2019,06,02,10,14,19.20
2019,06,02,10,15,19.20
2019,06,02,10,16,19.20
2019,06,02,10,17,19.20
2019,06,02,10,18,19.20
2019,06,02,10,19,19.20
2019,06,02,10,20,19.20
2019,06,02,10,21,19.20
2019,06,02,10,22,19.20
2019,06,02,10,23,19.30
2019,06,02,10,24,19.20
2019,06,02,10,25,19.10
2019,06,02,10,26,19.00
2019,06,02,10,27,18.90
2019,06,02,10,28,18.80
2019,06,02,10,29,18.80
2019,06,02,10,30,18.80
2019,06,02,10,31,18.70
2019,06,02,10,32,18.60
2019,06,02,10,33,18.60
2019,06,02,10,34,18.60
2019,06,02,10,35,18.50
2019,06,02,10,36,18.50
2019,06,02,10,37,18.50
2019,06,02,10,38,18.40
2019,06,02,10,39,18.40
2019,06,02,10,40,18.40
2019,06,02,10,41,18.50
2019,06,02,10,42,18.50
2019,06,02,10,43,18.40
2019,06,02,10,44,18.40
2019,06,02,10,45,18.40
2019,06,02,10,46,18.50
2019,06,02,10,47,18.50
2019,06,02,10,48,18.40
2019,06,02,10,49,18.30
2019,06,02,10,50,18.30
2019,06,02,10,51,18.40
2019,06,02,10,52,18.40
2019,06,02,10,53,18.40
2019,06,02,10,54,18.40
2019,06,02,10,55,18.40
2019,06,02,10,56,18.50
2019,06,02,10,57,18.50
2019,06,02,10,58,18.50
2019,06,02,10,59,18.60
2019,06,02,11,00,18.60
2019,06,02,11,01,18.70
2019,06,02,11,02,18.70
2019,06,02,11,03,18.80
2019,06,02,11,04,19.00
2019,06,02,11,05,19.10
2019,06,02,11,06,19.10
2019,06,02,11,07,19.10
2019,06,02,11,08,19.10
2019,06,02,11,09,19.00
2019,06,02,11,10,19.10
2019,06,02,11,11,19.10
2019,06,02,11,12,19.20
2019,06,02,11,13,19.20
2019,06,02,11,14,19.20
2019,06,02,11,15,19.20
2019,06,02,11,16,19.20
2019,06,02,11,17,19.20
2019,06,02,11,18,19.10
2019,06,02,11,19,19.10
2019,06,02,11,20,19.00
2019,06,02,11,21,19.00
2019,06,02,11,22,18.90
2019,06,02,11,23,18.90
2019,06,02,11,24,18.90
2019,06,02,11,25,19.00
2019,06,02,11,26,19.10
2019,06,02,11,27,19.20
2019,06,02,11,28,19.20
2019,06,02,11,29,19.30
2019,06,02,11,30,19.30
2019,06,02,11,31,19.20
2019,06,02,11,32,19.20
2019,06,02,11,33,19.20
2019,06,02,11,34,19.20
2019,06,02,11,35,19.20
2019,06,02,11,36,19.10
2019,06,02,11,37,19.10
2019,06,02,11,38,19.10
2019,06,02,11,39,19.10
2019,06,02,11,40,19.10
2019,06,02,11,41,19.00
2019,06,02,11,42,19.10
2019,06,02,11,43,19.20
2019,06,02,11,44,19.30
2019,06,02,11,45,19.40
2019,06,02,11,46,19.50
2019,06,02,11,47,19.50
2019,06,02,11,48,19.60
2019,06,02,11,49,19.60
2019,06,02,11,50,19.70
2019,06,02,11,51,19.80
2019,06,02,11,52,19.80
2019,06,02,11,53,19.90
2019,06,02,11,54,19.90
2019,06,02,11,55,20.00
2019,06,02,11,56,20.00
2019,06,02,11,57,20.10
2019,06,02,11,58,20.20
2019,06,02,11,59,20.30
2019,06,02,12,00,20.40
2019,06,02,12,01,20.50
2019,06,02,12,02,20.50
2019,06,02,12,03,20.60
2019,06,02,12,04,20.70
2019,06,02,12,05,20.80
2019,06,02,12,06,20.80
2019,06,02,12,07,20.80
2019,06,02,12,08,20.80
2019,06,02,12,09,20.70
2019,06,02,12,10,20.70
2019,06,02,12,11,20.70
2019,06,02,12,12,20.70
2019,06,02,12,13,20.80
2019,06,02,12,14,20.80
2019,06,02,12,15,20.80
2019,06,02,12,16,20.80
2019,06,02,12,17,20.90
2019,06,02,12,18,20.90
2019,06,02,12,19,20.90
2019,06,02,12,20,21.00
2019,06,02,12,21,21.00
2019,06,02,12,22,21.10
2019,06,02,12,23,21.10
2019,06,02,12,24,21.10
2019,06,02,12,25,21.00
2019,06,02,12,26,21.00
2019,06,02,12,27,20.90
2019,06,02,12,28,20.90
2019,06,02,12,29,20.90
2019,06,02,12,30,20.90
2019,06,02,12,31,20.90
2019,06,02,12,32,20.90
2019,06,02,12,33,20.90
2019,06,02,12,34,20.90
2019,06,02,12,35,20.90
2019,06,02,12,36,20.90
2019,06,02,12,37,20.90
2019,06,02,12,38,21.00
2019,06,02,12,39,21.00
2019,06,02,12,40,21.00
2019,06,02,12,41,21.00
2019,06,02,12,42,21.00
2019,06,02,12,43,21.00
2019,06,02,12,44,21.10
2019,06,02,12,45,21.20
2019,06,02,12,46,21.30
2019,06,02,12,47,21.30
2019,06,02,12,48,21.30
2019,06,02,12,49,21.40
2019,06,02,12,50,21.40
2019,06,02,12,51,21.40
2019,06,02,12,52,21.50
2019,06,02,12,53,21.50
2019,06,02,12,54,21.60
2019,06,02,12,55,21.60
2019,06,02,12,56,21.60
2019,06,02,12,57,21.50
2019,06,02,12,58,21.50
2019,06,02,12,59,21.50
2019,06,02,13,00,21.40
2019,06,02,13,01,21.40
2019,06,02,13,02,21.30
2019,06,02,13,03,21.30
2019,06,02,13,04,21.30
2019,06,02,13,05,21.20
2019,06,02,13,06,21.20
2019,06,02,13,07,21.10
2019,06,02,13,08,21.10
2019,06,02,13,09,21.10
2019,06,02,13,10,21.20
2019,06,02,13,11,21.30
2019,06,02,13,12,21.40
2019,06,02,13,13,21.50
2019,06,02,13,14,21.60
2019,06,02,13,15,21.70
2019,06,02,13,16,21.70
2019,06,02,13,17,21.80
2019,06,02,13,18,21.90
2019,06,02,13,19,22.00
2019,06,02,13,20,22.10
2019,06,02,13,21,22.10
2019,06,02,13,22,22.10
2019,06,02,13,23,22.10
2019,06,02,13,24,22.10
2019,06,02,13,25,22.10
2019,06,02,13,26,22.10
2019,06,02,13,27,22.10
2019,06,02,13,28,22.00
2019,06,02,13,29,22.00
2019,06,02,13,30,22.10
2019,06,02,13,31,22.10
2019,06,02,13,32,22.10
2019,06,02,13,33,22.20
2019,06,02,13,34,22.30
2019,06,02,13,35,22.30
2019,06,02,13,36,22.20
2019,06,02,13,37,22.20
2019,06,02,13,38,22.10
2019,06,02,13,39,22.00
2019,06,02,13,40,22.00
2019,06,02,13,41,22.10
2019,06,02,13,42,22.10
2019,06,02,13,43,22.20
2019,06,02,13,44,22.20
2019,06,02,13,45,22.30
2019,06,02,13,46,22.30
2019,06,02,13,47,22.30
2019,06,02,13,48,22.40
2019,06,02,13,49,22.50
2019,06,02,13,50,22.60
2019,06,02,13,51,22.60
2019,06,02,13,52,22.60
2019,06,02,13,53,22.60
2019,06,02,13,54,22.60
2019,06,02,13,55,22.50
2019,06,02,13,56,22.40
2019,06,02,13,57,22.30
2019,06,02,13,58,22.20
2019,06,02,13,59,22.20
2019,06,02,14,00,22.20
2019,06,02,14,01,22.10
2019,06,02,14,02,22.00
2019,06,02,14,03,21.90
2019,06,02,14,04,21.80
2019,06,02,14,05,21.70
2019,06,02,14,06,21.70
2019,06,02,14,07,21.70
2019,06,02,14,08,21.60
2019,06,02,14,09,21.50
2019,06,02,14,10,21.50
2019,06,02,14,11,21.50
2019,06,02,14,12,21.50
2019,06,02,14,13,21.60
2019,06,02,14,14,21.60
2019,06,02,14,15,21.70
2019,06,02,14,16,21.70
2019,06,02,14,17,21.70
2019,06,02,14,18,21.70
2019,06,02,14,19,21.80
2019,06,02,14,20,21.80
2019,06,02,14,21,21.80
2019,06,02,14,22,21.70
2019,06,02,14,23,21.70
2019,06,02,14,24,21.60
2019,06,02,14,25,21.60
2019,06,02,14,26,21.50
2019,06,02,14,27,21.50
2019,06,02,14,28,21.30
2019,06,02,14,29,21.20
2019,06,02,14,30,21.20
2019,06,02,14,31,21.10
2019,06,02,14,32,21.20
2019,06,02,14,33,21.20
2019,06,02,14,34,21.20
2019,06,02,14,35,21.20
2019,06,02,14,36,21.20
2019,06,02,14,37,21.20
2019,06,02,14,38,21.20
2019,06,02,14,39,21.30
2019,06,02,14,40,21.30
2019,06,02,14,41,21.30
2019,06,02,14,42,21.30
2019,06,02,14,43,21.20
2019,06,02,14,44,21.10
2019,06,02,14,45,21.00
2019,06,02,14,46,20.80
2019,06,02,14,47,20.70
2019,06,02,14,48,20.60
2019,06,02,14,49,20.40
2019,06,02,14,50,20.30
2019,06,02,14,51,20.10
2019,06,02,14,52,20.00
2019,06,02,14,53,19.90
2019,06,02,14,54,19.90
2019,06,02,14,55,19.90
2019,06,02,14,56,19.80
2019,06,02,14,57,19.80
2019,06,02,14,58,19.80
2019,06,02,14,59,19.90
2019,06,02,15,00,19.90
2019,06,02,15,01,19.80
2019,06,02,15,02,19.90
2019,06,02,15,03,19.90
2019,06,02,15,04,19.90
2019,06,02,15,05,19.90
2019,06,02,15,06,20.00
2019,06,02,15,07,20.10
2019,06,02,15,08,20.20
2019,06,02,15,09,20.30
2019,06,02,15,10,20.50
2019,06,02,15,11,20.60
2019,06,02,15,12,20.70
2019,06,02,15,13,20.80
2019,06,02,15,14,20.80
2019,06,02,15,15,20.90
2019,06,02,15,16,20.90
2019,06,02,15,17,21.00
2019,06,02,15,18,21.00
2019,06,02,15,19,21.10
2019,06,02,15,20,21.10
2019,06,02,15,21,21.10
2019,06,02,15,22,21.10
2019,06,02,15,23,21.00
2019,06,02,15,24,21.00
2019,06,02,15,25,21.00
2019,06,02,15,26,21.10
2019,06,02,15,27,21.10
2019,06,02,15,28,21.20
2019,06,02,15,29,21.20
2019,06,02,15,30,21.30
2019,06,02,15,31,21.30
2019,06,02,15,32,21.40
2019,06,02,15,33,21.40
2019,06,02,15,34,21.40
2019,06,02,15,35,21.40
2019,06,02,15,36,21.40
2019,06,02,15,37,21.40
2019,06,02,15,38,21.40
2019,06,02,15,39,21.40
2019,06,02,15,40,21.40
2019,06,02,15,41,21.40
2019,06,02,15,42,21.30
2019,06,02,15,43,21.30
2019,06,02,15,44,21.30
2019,06,02,15,45,21.20
2019,06,02,15,46,21.20
2019,06,02,15,47,21.20
2019,06,02,15,48,21.20
2019,06,02,15,49,21.20
2019,06,02,15,50,21.10
2019,06,02,15,51,21.10
2019,06,02,15,52,21.10
2019,06,02,15,53,21.10
2019,06,02,15,54,21.10
2019,06,02,15,55,21.20
2019,06,02,15,56,21.20
2019,06,02,15,57,21.20
2019,06,02,15,58,21.20
2019,06,02,15,59,21.10
2019,06,02,16,00,21.10
2019,06,02,16,01,21.00
2019,06,02,16,02,20.90
2019,06,02,16,03,20.90
2019,06,02,16,04,20.80
2019,06,02,16,05,20.80
2019,06,02,16,06,20.70
2019,06,02,16,07,20.70
2019,06,02,16,08,20.60
2019,06,02,16,09,20.60
2019,06,02,16,10,20.60
2019,06,02,16,11,20.60
2019,06,02,16,12,20.60
2019,06,02,16,13,20.60
2019,06,02,16,14,20.60
2019,06,02,16,15,20.50
2019,06,02,16,16,20.40
2019,06,02,16,17,20.40
2019,06,02,16,18,20.30
2019,06,02,16,19,20.20
2019,06,02,16,20,20.10
2019,06,02,16,21,20.00
2019,06,02,16,22,19.80
2019,06,02,16,23,19.70
2019,06,02,16,24,19.60
2019,06,02,16,25,19.60
2019,06,02,16,26,19.50
2019,06,02,16,27,19.50
2019,06,02,16,28,19.50
2019,06,02,16,29,19.40
2019,06,02,16,30,19.40
2019,06,02,16,31,19.50
2019,06,02,16,32,19.50
2019,06,02,16,33,19.50
2019,06,02,16,34,19.50
2019,06,02,16,35,19.50
2019,06,02,16,36,19.60
2019,06,02,16,37,19.60
2019,06,02,16,38,19.70
2019,06,02,16,39,19.70
2019,06,02,16,40,19.60
2019,06,02,16,41,19.60
2019,06,02,16,42,19.60
2019,06,02,16,43,19.60
2019,06,02,16,44,19.60
2019,06,02,16,45,19.50
2019,06,02,16,46,19.50
2019,06,02,16,47,19.50
2019,06,02,16,48,19.50
2019,06,02,16,49,19.60
2019,06,02,16,50,19.60
2019,06,02,16,51,19.70
2019,06,02,16,52,19.80
2019,06,02,16,53,20.00
2019,06,02,16,54,20.10
2019,06,02,16,55,20.20
2019,06,02,16,56,20.30
2019,06,02,16,57,20.40
2019,06,02,16,58,20.40
2019,06,02,16,59,20.40
2019,06,02,17,00,20.50
2019,06,02,17,01,20.60
2019,06,02,17,02,20.60
2019,06,02,17,03,20.70
2019,06,02,17,04,20.80
2019,06,02,17,05,20.80
2019,06,02,17,06,20.80
2019,06,02,17,07,20.80
2019,06,02,17,08,20.80
2019,06,02,17,09,20.80
2019,06,02,17,10,20.80
2019,06,02,17,11,20.80
2019,06,02,17,12,20.70
2019,06,02,17,13,20.70
2019,06,02,17,14,20.70
2019,06,02,17,15,20.70
2019,06,02,17,16,20.70
2019,06,02,17,17,20.70
2019,06,02,17,18,20.60
2019,06,02,17,19,20.60
2019,06,02,17,20,20.50
2019,06,02,17,21,20.40
2019,06,02,17,22,20.40
2019,06,02,17,23,20.30
2019,06,02,17,24,20.30
2019,06,02,17,25,20.30
2019,06,02,17,26,20.30
2019,06,02,17,27,20.30
2019,06,02,17,28,20.40
2019,06,02,17,29,20.40
2019,06,02,17,30,20.40
2019,06,02,17,31,20.50
2019,06,02,17,32,20.60
2019,06,02,17,33,20.70
2019,06,02,17,34,20.70
2019,06,02,17,35,20.80
2019,06,02,17,36,21.00
2019,06,02,17,37,21.10
2019,06,02,17,38,21.20
2019,06,02,17,39,21.30
2019,06,02,17,40,21.40
2019,06,02,17,41,21.50
2019,06,02,17,42,21.60
2019,06,02,17,43,21.70
2019,06,02,17,44,21.80
2019,06,02,17,45,21.80
2019,06,02,17,46,21.80
2019,06,02,17,47,21.90
2019,06,02,17,48,21.90
2019,06,02,17,49,22.00
2019,06,02,17,50,22.10
2019,06,02,17,51,22.20
2019,06,02,17,52,22.30
2019,06,02,17,53,22.30
2019,06,02,17,54,22.30
2019,06,02,17,55,22.30
2019,06,02,17,56,22.20
2019,06,02,17,57,22.20
2019,06,02,17,58,22.10
2019,06,02,17,59,22.10
2019,06,02,18,00,22.10
2019,06,02,18,01,22.10
2019,06,02,18,02,22.10
2019,06,02,18,03,22.10
2019,06,02,18,04,22.20
2019,06,02,18,05,22.20
2019,06,02,18,06,22.30
2019,06,02,18,07,22.30
2019,06,02,18,08,22.30
2019,06,02,18,09,22.30
2019,06,02,18,10,22.30
2019,06,02,18,11,22.30
2019,06,02,18,12,22.30
2019,06,02,18,13,22.30
2019,06,02,18,14,22.20
2019,06,02,18,15,22.10
2019,06,02,18,16,21.90
2019,06,02,18,17,21.90
2019,06,02,18,18,21.80
2019,06,02,18,19,21.80
2019,06,02,18,20,21.70